TG6YMD-19 Weather Reports


time (UTC)temp
C
wind
direction
speed
KPH
gust
KPH
rain 1hr
cm
rain 24hr
cm
rain mn
cm
humidity
%
barometer
mb
20260504081824 23 30 4.8 6.4 0.00 0.00 0.00 90 1014.0
20260504080823 21 30 4.8 6.4 0.00 0.00 0.00 89 1014.0
20260504045812 22 25 6.4 9.7 0.00 0.00 0.00 82 1015.0
20260504044811 23 25 6.4 9.7 0.00 0.00 0.00 82 1015.0
20260504043811 23 25 6.4 9.7 0.00 0.00 0.00 82 1015.0
20260504042810 22 39 6.4 11.3 0.00 0.00 0.00 75 1015.0
20260504041810 22 39 6.4 11.3 0.00 0.00 0.00 75 1015.0
20260504040809 23 39 6.4 11.3 0.00 0.00 0.00 75 1015.0
20260504035808 23 39 6.4 11.3 0.00 0.00 0.00 75 1015.0
20260504034808 24 39 6.4 11.3 0.00 0.00 0.00 75 1015.0
20260504033807 25 39 6.4 11.3 0.00 0.00 0.00 75 1015.0
20260504032807 25 36 6.4 11.3 0.00 0.00 0.00 75 1014.0
20260504031806 23 36 6.4 11.3 0.00 0.00 0.00 73 1014.0
20260504030806 23 36 6.4 11.3 0.00 0.00 0.00 73 1014.0
20260504025805 24 36 6.4 11.3 0.00 0.00 0.00 73 1014.0
20260504024804 25 36 6.4 11.3 0.00 0.00 0.00 73 1014.0
20260504023804 25 36 6.4 11.3 0.00 0.00 0.00 73 1014.0
20260504022803 25 29 6.4 11.3 0.00 0.00 0.00 62 1012.0
20260504021803 25 29 6.4 11.3 0.00 0.00 0.00 62 1012.0
20260504020802 26 29 6.4 11.3 0.00 0.00 0.00 62 1012.0
20260504015802 26 29 6.4 11.3 0.00 0.00 0.00 62 1012.0
20260504014801 27 29 6.4 11.3 0.00 0.00 0.00 62 1012.0
20260504013800 27 29 6.4 11.3 0.00 0.00 0.00 62 1012.0
20260504012800 28 32 4.8 6.4 0.00 0.00 0.00 62 1011.0
20260504011759 28 32 4.8 6.4 0.00 0.00 0.00 62 1011.0
20260504010759 33 90 14.5 0.0 0.00 0.00 0.00 40 1011.0
20260504005758 33 90 14.5 0.0 0.00 0.00 0.00 40 1011.0
20260504004758 33 90 14.5 0.0 0.00 0.00 0.00 40 1011.0
20260504003757 33 90 14.5 0.0 0.00 0.00 0.00 40 1011.0
20260504002756 33 90 14.5 0.0 0.00 0.00 0.00 40 1010.0
20260504001756 33 90 14.5 0.0 0.00 0.00 0.00 40 1010.0
20260504000755 33 90 14.5 0.0 0.00 0.00 0.00 40 1010.0
20260503235755 34 70 17.7 0.0 0.00 0.00 0.00 38 1010.0
20260503234754 34 70 17.7 0.0 0.00 0.00 0.00 38 1010.0
20260503233754 34 70 17.7 0.0 0.00 0.00 0.00 38 1010.0
20260503232753 34 70 17.7 0.0 0.00 0.00 0.00 38 1009.0
20260503231752 34 70 17.7 0.0 0.00 0.00 0.00 38 1009.0
20260503230752 34 70 17.7 0.0 0.00 0.00 0.00 38 1009.0
20260503225751 35 100 20.9 0.0 0.00 0.00 0.00 36 1009.0
20260503224751 35 100 20.9 0.0 0.00 0.00 0.00 36 1009.0
20260503223750 35 100 20.9 0.0 0.00 0.00 0.00 36 1009.0
20260503222750 35 100 20.9 0.0 0.00 0.00 0.00 36 1008.0
20260503221749 35 100 20.9 0.0 0.00 0.00 0.00 36 1008.0
20260503220748 35 100 20.9 0.0 0.00 0.00 0.00 36 1008.0
20260503215748 35 70 17.7 0.0 0.00 0.00 0.00 32 1008.0
20260503214747 35 70 17.7 0.0 0.00 0.00 0.00 32 1008.0
20260503213747 35 70 17.7 0.0 0.00 0.00 0.00 32 1008.0
20260503212746 35 70 17.7 0.0 0.00 0.00 0.00 32 1009.0
20260503211746 35 70 17.7 0.0 0.00 0.00 0.00 32 1009.0
20260503210745 38 90 17.7 0.0 0.00 0.00 0.00 24 1009.0
20260503205744 38 90 17.7 0.0 0.00 0.00 0.00 24 1009.0
20260503204744 38 90 17.7 0.0 0.00 0.00 0.00 24 1009.0
20260503203743 38 90 17.7 0.0 0.00 0.00 0.00 24 1009.0
20260503202743 38 90 17.7 0.0 0.00 0.00 0.00 24 1010.0
20260503201742 38 90 17.7 0.0 0.00 0.00 0.00 24 1010.0
20260503200741 38 90 17.7 0.0 0.00 0.00 0.00 24 1009.0
20260503195741 37 50 17.7 0.0 0.00 0.00 0.00 27 1009.0
20260503194740 37 50 17.7 0.0 0.00 0.00 0.00 27 1009.0
20260503193740 37 50 17.7 0.0 0.00 0.00 0.00 27 1009.0
20260503192739 37 50 17.7 0.0 0.00 0.00 0.00 27 1010.0
20260503191739 37 50 17.7 0.0 0.00 0.00 0.00 27 1010.0
20260503190738 37 50 17.7 0.0 0.00 0.00 0.00 27 1010.0
20260503185737 36 50 17.7 0.0 0.00 0.00 0.00 32 1010.0
20260503184737 36 50 17.7 0.0 0.00 0.00 0.00 32 1010.0
20260503183736 36 50 17.7 0.0 0.00 0.00 0.00 32 1010.0
20260503182735 36 50 17.7 0.0 0.00 0.00 0.00 32 1012.0
20260503181736 36 50 17.7 0.0 0.00 0.00 0.00 32 1012.0
20260503180734 36 50 17.7 0.0 0.00 0.00 0.00 32 1012.0
20260503175734 36 70 17.7 0.0 0.00 0.00 0.00 34 1012.0
20260503174733 36 70 17.7 0.0 0.00 0.00 0.00 34 1012.0
20260503173732 36 70 17.7 0.0 0.00 0.00 0.00 34 1012.0
20260503172732 36 70 17.7 0.0 0.00 0.00 0.00 34 1013.0
20260503171731 36 70 17.7 0.0 0.00 0.00 0.00 34 1013.0
20260503170731 34 30 9.7 0.0 0.00 0.00 0.00 43 1013.0
20260503150724 30 0 0.0 0.0 0.00 0.00 0.00 55 1015.0
20260503130716 27 41 4.8 6.4 0.00 0.00 0.00 69 1015.0
20260503110709 21 28 6.4 8.0 0.00 0.00 0.00 79 1013.0